Regional Weather Roundup
Issued by NWS Jackson, KY

Home | Current Version | Previous Version | Graphics & Text | Print | Product List | Glossary On
Versions: 1 2 3 4 5 6 7 8 9 10 11 12 13 14 15 16 17 18 19 20 21 22 23 24 25 26 27 28 29 30 31 32 33 34 35 36 37 38 39 40 41 42 43 44 45 46 47 48 49 50
000
ASUS43 KJKL 062210
RWRJKL

EAST KENTUCKY HOURLY WEATHER ROUNDUP
NATIONAL WEATHER SERVICE JACKSON KY
600 PM EDT MON JUL 06 2015

NOTE: "FAIR" INDICATES FEW OR NO CLOUDS BELOW 12,000 FEET WITH
NO SIGNIFICANT WEATHER AND/OR OBSTRUCTIONS TO VISIBILITY.

* THESE REPORTS ARE NOT UNDER NWS QUALITY CONTROL AND MAY NOT
  REPORT WEATHER SUCH AS PRECIPITATION AND FOG.

KYZ079-080-083-085-087-088-110-112-115-119-120-062300
...EASTERN KENTUCKY...

CITY           SKY/WX    TMP DP  RH WIND       PRES   REMARKS
JACKSON        PTSUNNY   80  68  66 CALM      30.10F
LONDON         SUNNY     84  62  47 W9        30.10F
SOMERSET*      SUNNY     81  64  57 W7        30.09F
MONTICELLO*    SUNNY     85  70  60 SW5       30.11F
MIDDLESBORO*   MOSUNNY   85  67  55 W3        30.10F
HARLAN APT*      N/A     81  63  54 W3        30.12F
HAZARD APT*    PTCLDY    81  66  61 SW7       30.10F
BLACK MTN*       N/A     72  61  68 NE1         N/A
PIKEVILLE APT* SUNNY     77  68  73 SW3       30.11F
BIG SANDY*     MOCLDY    81  69  67 SW7       30.09F
MOREHEAD APT*  CLEAR     82  66  57 SW7       30.08F
$$

KYZ035-036-041-042-044-050-067-078-099-062300
...CENTRAL KENTUCKY...

CITY           SKY/WX    TMP DP  RH WIND       PRES   REMARKS
MT STERLING*   MOSUNNY   81  70  69 SW5       30.06F
FLEMING/MASON* SUNNY     82  66  57 SW6       30.05F
DANVILLE*      MOSUNNY   84  66  54 SW8       30.07F
RICHMOND*      MOSUNNY   82  66  57 SW8       30.06F
LEXINGTON      SUNNY     83  66  56 SW9       30.05F
FRANKFORT      SUNNY     84  66  54 SW10      30.03F
$$

KYZ091>093-OHZ055-061-077-WVZ005-015-034-035-042-062300
...SOUTHERN OHIO/WEST VIRGINIA...

CITY           SKY/WX    TMP DP  RH WIND       PRES   REMARKS
COVINGTON      MOSUNNY   83  67  58 SW9       30.02F HAZE
COLUMBUS       MOSUNNY   83  61  47 SW9       30.01S
DAYTON         MOSUNNY   83  65  54 S6        30.02F
WILMINGTON     SUNNY     82  61  48 W8        30.03F
HUNTINGTON     MOSUNNY   81  64  56 W12       30.04F
CHARLESTON     PTSUNNY   79  68  69 VRB3      30.06F
PINEVILLE*     MOSUNNY   77  70  79 MISG      30.18F
BECKLEY        CLOUDY    72  63  73 SW8       30.17S
BLUEFIELD      PTSUNNY   73  63  70 W7        30.19F
$$

VAZ002-007-008-TNZ017-027-036-066-071-062300
...SOUTHWEST VIRGINIA/EAST TENNESSEE...

CITY           SKY/WX    TMP DP  RH WIND       PRES   REMARKS
WISE*          MOSUNNY   77  61  57 SW5       30.19F
JONESVILLE*      N/A    N/A N/A N/A MISG        N/A
ABINGDON*      SUNNY     79  64  61 W7        30.16F
BRISTOL        MOSUNNY   81  64  56 W7        30.12F
KNOXVILLE      PTSUNNY   84  68  58 SW8       30.09F
OAK RIDGE      MOSUNNY   85  67  54 CALM      30.11F
CROSSVILLE     SUNNY     81  65  58 W8        30.15S
NASHVILLE      PTSUNNY   85  72  65 SW6       30.07F HX  91
$$

...KEY TO REMARKS...
VSB - VISIBILITY IN MILES
WCI - WIND CHILL INDEX
HX  - HEAT INDEX

$$


USA.gov is the U.S. government's official web portal to all federal, state and local government web resources and services.